GW6116 Weather Reports


time (UTC)temp
C
wind
direction
speed
KPH
gust
KPH
rain 1hr
cm
rain 24hr
cm
rain mn
cm
humidity
%
barometer
mb
20260506201514 8 165 3.2 0.0 0.00 0.00 2.26 74 1006.0
20260506200011 8 163 3.2 0.0 0.00 0.00 2.26 73 1006.0
20260506194511 8 163 0.0 0.0 0.00 0.00 2.24 74 1006.3
20260506193006 8 162 3.2 0.0 0.00 0.00 2.11 74 1006.5
20260506191506 9 162 3.2 0.0 0.00 0.00 2.06 73 1006.0
20260506190006 10 186 6.4 0.0 0.00 0.00 2.06 74 1005.9
20260506184610 10 162 3.2 0.0 0.00 0.00 2.06 73 1005.9
20260506183104 10 142 1.6 0.0 0.00 0.00 2.01 71 1005.9
20260506181559 10 162 3.2 0.0 0.00 0.00 1.85 71 1005.9
20260506180053 11 165 1.6 0.0 0.00 0.00 1.75 71 1006.0
20260506174553 11 163 0.0 0.0 0.00 0.00 1.68 71 1006.0
20260506173056 11 165 1.6 0.0 0.00 0.00 1.63 74 1005.9
20260506171551 11 153 1.6 0.0 0.00 0.00 1.55 70 1006.2
20260506170049 11 173 1.6 0.0 0.00 0.00 1.45 71 1006.5
20260506164552 11 163 1.6 0.0 0.00 0.00 1.37 73 1006.5
20260506163051 11 163 1.6 0.0 0.00 0.00 1.27 75 1006.6
20260506161551 11 163 1.6 0.0 0.00 0.00 1.17 73 1006.7
20260506160046 12 167 0.0 0.0 0.00 0.00 1.12 73 1006.9
20260506154540 12 158 1.6 0.0 0.00 0.00 1.04 71 1007.0
20260506153040 12 145 0.0 0.0 0.00 0.00 0.94 71 1007.2
20260506151558 12 156 1.6 0.0 0.00 0.00 0.84 73 1007.3
20260506150038 12 160 0.0 0.0 0.00 0.00 0.76 71 1007.4
20260506144536 12 161 1.6 0.0 0.00 0.00 0.66 73 1007.7
20260506143045 12 160 1.6 0.0 0.00 0.00 0.58 75 1007.9
20260506141534 12 158 1.6 0.0 0.00 0.00 0.51 75 1007.9
20260506140037 13 153 0.0 0.0 0.00 0.00 0.43 75 1008.2
20260506134533 13 138 0.0 0.0 0.00 0.00 0.38 71 1007.8
20260506133039 13 136 0.0 0.0 0.00 0.00 0.36 71 1007.5
20260506131536 13 135 0.0 0.0 0.00 0.00 0.30 74 1007.8
20260506130031 13 131 0.0 0.0 0.00 0.00 0.25 76 1007.8
20260506124530 13 145 0.0 0.0 0.00 0.00 0.20 75 1007.9
20260506123030 13 139 0.0 0.0 0.00 0.00 0.15 74 1007.9
20260506121529 13 138 0.0 0.0 0.00 0.00 0.10 75 1008.4
20260506120031 13 139 0.0 0.0 0.00 0.00 0.08 76 1008.4
20260506114538 13 138 0.0 0.0 0.00 0.00 0.05 77 1007.7
20260506113029 13 138 0.0 0.0 0.00 0.00 0.05 78 1007.5
20260506111526 12 138 0.0 0.0 0.00 0.00 0.05 79 1007.8
20260506110025 12 138 0.0 0.0 0.00 0.00 0.05 79 1007.8
20260506104524 12 138 0.0 0.0 0.00 0.00 0.05 80 1007.8
20260506103023 12 148 0.0 0.0 0.00 0.00 0.03 81 1007.7
20260506101542 12 148 0.0 0.0 0.00 0.00 0.03 81 1007.8
20260506100021 12 149 0.0 0.0 0.00 0.00 0.03 82 1007.5
20260506094522 12 149 0.0 0.0 0.00 0.00 0.03 83 1007.4
20260506093020 12 150 0.0 0.0 0.00 0.00 0.03 83 1007.3
20260506091521 12 149 0.0 0.0 0.00 0.00 0.03 83 1007.5
20260506090020 12 150 0.0 0.0 0.00 0.00 0.03 84 1007.7
20260506084520 12 153 0.0 0.0 0.00 0.00 0.03 84 1007.7
20260506083017 12 152 0.0 0.0 0.00 0.00 0.03 84 1007.7
20260506081515 12 153 0.0 0.0 0.00 0.00 0.03 85 1007.9
20260506073012 13 152 0.0 0.0 0.00 0.00 0.03 85 1008.4
20260506071515 13 129 0.0 0.0 0.00 0.00 0.03 84 1008.3
20260506061504 14 124 0.0 0.0 0.00 0.00 0.03 83 1008.3
20260506044600 15 138 0.0 0.0 0.00 0.00 0.03 84 1008.5
20260506043051 16 142 0.0 0.0 0.00 0.00 0.03 84 1008.2
20260506041559 16 136 0.0 0.0 0.00 0.00 0.03 84 1008.5
20260506040043 16 136 0.0 0.0 0.00 0.00 0.00 83 1008.5
20260506034545 16 136 0.0 0.0 0.00 0.00 0.36 84 1008.5
20260506033044 16 145 0.0 0.0 0.00 0.00 0.36 83 1008.1
20260506031542 16 148 0.0 0.0 0.00 0.00 0.36 83 1008.1
20260506030042 16 148 0.0 0.0 0.00 0.00 0.36 83 1008.1
20260506024542 16 122 0.0 0.0 0.00 0.00 0.36 83 1008.1
20260506023040 16 150 0.0 0.0 0.00 0.00 0.36 83 1008.0
20260506021539 16 149 0.0 0.0 0.00 0.00 0.36 83 1007.8
20260506020038 16 149 0.0 0.0 0.00 0.00 0.36 83 1007.8
20260506014547 16 149 0.0 0.0 0.00 0.00 0.36 83 1007.7
20260506013039 16 150 0.0 0.0 0.00 0.00 0.36 83 1007.2
20260506011541 16 150 0.0 0.0 0.00 0.00 0.36 83 1007.2
20260506010036 16 150 0.0 0.0 0.00 0.00 0.36 83 1007.1
20260506004541 16 135 0.0 0.0 0.00 0.00 0.36 82 1007.2
20260506003036 16 142 0.0 0.0 0.00 0.00 0.36 82 1006.8
20260506001544 16 143 0.0 0.0 0.00 0.00 0.36 80 1006.5
20260506000043 17 131 0.0 0.0 0.00 0.00 0.36 78 1006.4
20260505234541 17 127 0.0 0.0 0.00 0.00 0.36 75 1006.4
20260505233034 18 123 1.6 0.0 0.00 0.00 0.36 74 1006.3
20260505231539 18 129 0.0 0.0 0.00 0.00 0.36 73 1005.8
20260505230037 18 134 0.0 0.0 0.00 0.00 0.36 73 1005.8
20260505224538 18 136 1.6 0.0 0.00 0.00 0.36 74 1005.6
20260505223041 18 163 1.6 0.0 0.00 0.00 0.36 73 1005.7
20260505221532 18 136 4.8 0.0 0.00 0.00 0.36 71 1005.8
20260505220038 19 148 4.8 0.0 0.00 0.00 0.36 66 1006.1
20260505214548 19 134 3.2 0.0 0.00 0.00 0.36 66 1005.7
20260505213048 20 160 3.2 0.0 0.00 0.00 0.36 64 1004.7
20260505211530 20 130 3.2 0.0 0.00 0.00 0.36 65 1005.1
20260505210031 21 132 4.8 0.0 0.00 0.00 0.36 65 1005.1
20260505204532 21 144 0.0 0.0 0.00 0.00 0.36 72 1004.2
20260505203028 21 141 1.6 0.0 0.00 0.00 0.36 75 1003.9